If you wish to contribute or participate in the discussions about articles you are invited to join SKYbrary as a registered user

 Actions

Marechal Cunha Machado International Airport

From SKYbrary Wiki

SBSL
Airport
ICAO: SBSL – IATA: SLZ
Summary
Name Marechal Cunha Machado International Airport
Region South America and Caribbean
Territory Brazil BR.gif
Location São Luís, Maranhão
Serving São Luís
Elevation 54.254 m
178 ft54.254 m
Coordinates 2° 35' 12.98" S, 44° 14' 10.00" W
Runways
Designator Length Width Surface ROPS
6/24 2386 m7,828.084 ft
45 m147.638 ft
ASP yes/yes
9/27 1464 m4,803.15 ft
45 m147.638 ft
ASP yes/yes


METAR
Observation SBSL 140300Z 04008KT 9999 BKN017 28/25 Q1009
Station Sao Luiz Aeroporto
Date/Time 14 December 2019 03:00:00
Wind direction 40°
Wind speed 08 kts
Lowest cloud amount broken clouds
Temperature 28°C
Dew point 25°C
Humidity 83%
QNH 1009 hPa
Weather condition n/a

Marechal Cunha Machado International Airport (IATA: SLZ, ICAO: SBSL), formerly called Tirirical Airport, is the airport serving São Luís, Brazil. Since 17 October 1985 the airport is named after Marechal Cunha Machado.

Climatology

Tropical savanna climate (Köppen climate classification Aw)

Maps

Terrain

Loading map...

Airport Layout

Loading map...


Accidents & Serious Incidents at or in vicinity of SBSL

None on SKYbrary